Location: Fredericksburg
(30.2750°N, 98.8720°W)
Time: 08:01:52
(UTC-05:00)

Amateur Radio Satellites - All Passes

Search period start: 06 May 2016 07:31
Search period end: 07 May 2016 07:31
Location: Fredericksburg, 30.2750°N, 98.8720°W

Satellite Date Start Highest point End Downlink Frequencies (MHz)
Time Altitude Azimuth
LilacSat-2 06 May 07:40:17 07:44:01 60° 100° (E) 07:47:43 437.200
YUBILEINY 06 May 07:57:33 08:05:20 38° 272° (W) 08:13:10 435.215
CUTE-I 06 May 07:58:07 08:03:27 88° 288° (WNW) 08:08:48 437.470
SO-50 06 May 08:06:31 08:09:38 17° 308° (NW) 08:12:47 436.795
PHONESAT 2.4 06 May 08:07:28 08:10:30 51° 147° (SSE) 08:13:33 2401.200-2431.200
BRITE-PL 06 May 08:12:55 08:18:29 58° 285° (WNW) 08:23:47 437.365/2234.400
M-CUBED/EXP-1 PRIME 06 May 08:16:12 08:19:19 27° 101° (ESE) 08:22:16 437.505
RS-15 06 May 08:20:30 08:32:39 66° 249° (WSW) 08:44:37 29.354- 29.394
NOAA 15 06 May 08:28:44 08:33:11 28° 290° (WNW) 08:37:37 137.62
AUBIESAT-1 06 May 08:31:15 08:34:35 34° 103° (ESE) 08:37:43 437.475
Cosmos 2491 06 May 08:35:18 08:43:04 34° 283° (WNW) 08:50:54 435.465 / 435.565
STRAND 1 06 May 08:40:46 08:45:35 43° 260° (W) 08:50:25 437.568
DOVE 4 06 May 08:42:09 08:47:03 63° 100° (E) 08:51:38 437.250
NOAA 18 06 May 08:44:08 08:48:27 25° 291° (WNW) 08:52:46 137.9125
Cubesat XI-IV 06 May 08:44:23 08:48:58 30° 289° (WNW) 08:53:34 437.490
PRISM 06 May 08:46:57 08:50:40 36° 73° (ENE) 08:54:26 437.425
CINEMA 3 06 May 08:58:10 09:01:43 23° 96° (E) 09:05:10 145.822/145.860
Cosmos 2504 06 May 09:00:46 09:08:20 54° 269° (W) 09:16:28 435.465 / 435.565
HO-68 06 May 09:04:59 09:11:33 38° 100° (E) 09:18:04 435.675
GOMX 1 06 May 09:05:42 09:10:26 34° 288° (WNW) 09:14:56 467.674
AAUSAT CUBESAT 2 06 May 09:08:37 09:09:19 10° 93° (E) 09:10:01 437.432
CUBEBUG 2 06 May 09:21:16 09:22:21 11° 93° (E) 09:23:25 437.445
CANX-2 06 May 09:25:35 09:29:46 61° 100° (E) 09:33:57 2200.000
PHONESAT 2.4 06 May 09:44:50 09:47:28 24° 341° (NNW) 09:50:06 2401.200-2431.200
M-CUBED/EXP-1 PRIME 06 May 09:51:57 09:53:33 13° 297° (WNW) 09:55:08 437.505
CUTE 1.7 + AOD 2 06 May 09:57:40 10:01:48 59° 284° (WNW) 10:05:58 437.475
Oscar 11 06 May 10:00:02 10:03:02 18° 95° (E) 10:06:03 145.826/435.025
COMPASS 1 06 May 10:13:53 10:18:03 77° 283° (WNW) 10:22:13 437.405
FUNcube-1 06 May 10:17:00 10:20:18 23° 96° (E) 10:23:34 145.935
SEEDS 06 May 10:17:55 10:21:56 45° 285° (WNW) 10:25:57 437.485
DOVE 4 06 May 10:23:01 10:24:01 11° 295° (WNW) 10:25:00 437.250
PRISM 06 May 10:24:30 10:26:04 12° 266° (W) 10:27:38 437.425
UNISAT 6 06 May 10:24:55 10:28:13 20° 71° (ENE) 10:31:30 437.425
CINEMA 3 06 May 10:35:19 10:38:42 22° 290° (WNW) 10:41:59 145.822/145.860
UWE-3 06 May 10:39:03 10:43:14 80° 101° (E) 10:47:21 435.000/436.395/437.385
TIGRISAT 06 May 10:40:21 10:44:17 28° 72° (ENE) 10:48:10 435.000
AAUSAT CUBESAT 2 06 May 10:41:00 10:44:56 43° 285° (WNW) 10:48:52 437.432
HO-68 06 May 10:52:52 10:59:02 33° 293° (WNW) 11:05:13 435.675
CUBEBUG 2 06 May 10:55:11 10:59:08 40° 286° (WNW) 11:03:01 437.445
ZACube-1 06 May 11:00:44 11:04:54 85° 282° (WNW) 11:09:01 437.345
ANTELSAT 06 May 11:05:35 11:10:09 59° 76° (ENE) 11:14:39 437.575/2403.000
DELFI C3 06 May 11:21:56 11:25:56 85° 286° (WNW) 11:29:56 145.870
PHONESAT 2.4 06 May 11:23:29 11:25:00 13° 358° (N) 11:26:31 2401.200-2431.200
HUMSAT D 06 May 11:29:39 11:33:33 43° 99° (E) 11:37:26 437.325/437.525
Oscar 11 06 May 11:35:29 11:39:06 27° 288° (WNW) 11:42:43 145.826/435.025
DUCHIFAT 1 06 May 11:44:41 11:48:06 24° 72° (ENE) 11:51:31 145.980
AO-85 06 May 11:45:52 11:50:54 42° 112° (ESE) 11:56:01 145.980
GONETS M04 06 May 11:45:58 11:54:03 40° 78° (ENE) 12:02:01
QB50P2 06 May 11:50:15 11:54:06 33° 73° (ENE) 11:57:57 145.880/145.840
POLYITAN 1 06 May 11:52:26 11:56:19 34° 73° (ENE) 12:00:11 437.675
FUNcube-1 06 May 11:53:23 11:56:23 20° 289° (WNW) 11:59:21 145.935
POPSAT HIP 1 06 May 11:53:56 11:57:48 34° 73° (ENE) 12:01:41 437.405
QB50P1 06 May 11:56:40 12:00:37 37° 74° (ENE) 12:04:34 145.935-145.965
AIST 1 06 May 11:58:11 12:02:29 52° 82° (E) 12:06:45
UNISAT 6 06 May 12:00:37 12:04:42 30° 262° (W) 12:08:43 437.425
AISAT 06 May 12:06:15 12:08:26 13° 94° (E) 12:10:35 437.250
BUGSAT 1 06 May 12:09:54 12:13:08 22° 71° (ENE) 12:16:24 437.445
TIGRISAT 06 May 12:17:23 12:20:52 21° 264° (W) 12:24:20 435.000
NANOSAT C BR1 06 May 12:28:50 12:33:05 86° 254° (WSW) 12:37:22 145.865
CUBEBUG 1 06 May 12:30:23 12:34:03 25° 97° (E) 12:37:42 437.445
ESTCUBE 1 06 May 12:39:18 12:43:43 50° 100° (E) 12:48:06 437.505/2401.250
UKube-1 06 May 12:50:06 12:53:56 30° 98° (E) 12:57:44 .
DX 1 06 May 12:50:58 12:55:04 39° 99° (E) 12:59:09 434.975-435.025
Cosmos 2499 06 May 12:54:31 13:02:29 65° 83° (E) 13:11:00 435.465 / 435.565
PHONESAT 2.4 06 May 13:00:20 13:02:37 18° 15° (NNE) 13:04:55 2401.200-2431.200
VELOX 1 06 May 13:07:53 13:12:20 76° 100° (E) 13:16:47 145.980
HUMSAT D 06 May 13:07:59 13:08:44 10° 292° (WNW) 13:09:30 437.325/437.525
SPROUT 06 May 13:12:30 13:16:10 27° 98° (E) 13:19:48 437.525
50 SAT 06 May 13:19:11 13:22:45 51° 284° (WNW) 13:26:20 437.505
JAS-2 06 May 13:19:35 13:25:01 38° 69° (ENE) 13:31:07 435.910
DUCHIFAT 1 06 May 13:20:29 13:23:41 21° 264° (W) 13:26:53 145.980
ISS 06 May 13:20:51 13:23:13 18° 38° (NE) 13:25:33 145.825
AO-85 06 May 13:27:16 13:31:33 23° 306° (NW) 13:35:49 145.980
QB50P2 06 May 13:27:30 13:29:55 15° 265° (W) 13:32:21 145.880/145.840
POLYITAN 1 06 May 13:29:46 13:32:09 14° 265° (W) 13:34:31 437.675
POPSAT HIP 1 06 May 13:31:17 13:33:37 14° 265° (W) 13:35:57 437.405
TISAT 1 06 May 13:33:19 13:34:47 12° 94° (E) 13:36:14 437.305
QB50P1 06 May 13:34:30 13:36:28 13° 266° (W) 13:38:26 145.935-145.965
AISAT 06 May 13:40:51 13:45:00 39° 287° (WNW) 13:49:07 437.250
GONETS M04 06 May 13:43:01 13:50:34 35° 273° (W) 13:58:07
BUGSAT 1 06 May 13:45:01 13:48:21 22° 263° (W) 13:51:42 437.445
CUBEBUG 1 06 May 14:06:50 14:10:09 21° 290° (WNW) 14:13:26 437.445
Oscar 19 06 May 14:07:39 14:12:44 62° 75° (ENE) 14:17:52 437.125/150
ESTCUBE 1 06 May 14:18:26 14:20:01 12° 293° (WNW) 14:21:37 437.505/2401.250
PCSat 06 May 14:22:41 14:26:40 21° 106° (ESE) 14:30:41 145.827
UKube-1 06 May 14:26:52 14:29:41 17° 291° (WNW) 14:32:31 .
DX 1 06 May 14:28:40 14:30:51 14° 292° (WNW) 14:33:03 434.975-435.025
Gurwin Techsat 1B 06 May 14:35:14 14:40:15 44° 73° (ENE) 14:45:15 435.225
PHONESAT 2.4 06 May 14:36:37 14:39:46 82° 26° (NNE) 14:42:55 2401.200-2431.200
O/OREOS (USA 219) 06 May 14:37:51 14:42:26 75° 107° (ESE) 14:47:01 437.305
CUSAT 1 06 May 14:46:36 14:48:58 17° 85° (E) 14:51:42 437.405
SPROUT 06 May 14:48:58 14:51:52 18° 290° (WNW) 14:54:45 437.525
Cosmos 2499 06 May 14:49:28 14:54:56 20° 275° (W) 15:00:38 435.465 / 435.565
ISS 06 May 14:56:48 14:59:40 29° 231° (SW) 15:02:31 145.825
SO-50 06 May 15:04:23 15:05:11 10° 48° (NE) 15:05:59 436.795
JAS-2 06 May 15:05:19 15:10:09 26° 267° (W) 15:15:28 435.910
TISAT 1 06 May 15:06:37 15:10:33 39° 286° (WNW) 15:14:27 437.305
ITUPSAT 1 06 May 15:23:49 15:28:18 40° 99° (E) 15:32:47 437.325
SWISSCUBE 06 May 15:30:48 15:35:30 57° 101° (E) 15:40:11 437.505
ITAMSAT 1 06 May 15:35:15 15:40:24 71° 74° (ENE) 15:45:32 435.822/435.867
AO-7 06 May 15:50:51 15:58:33 45° 67° (ENE) 16:06:16 29.400- 29.500
Oscar 19 06 May 15:50:53 15:52:21 11° 267° (W) 15:53:48 437.125/150
BEESAT 06 May 16:03:29 16:08:12 67° 285° (WNW) 16:12:55 436.000
PCSat 06 May 16:04:44 16:09:45 38° 299° (WNW) 16:14:47 145.827
DANDE 06 May 16:06:24 16:09:11 66° 96° (E) 16:12:39 436.750
PHONESAT 2.4 06 May 16:15:29 16:16:16 11° 221° (SW) 16:17:02 2401.200-2431.200
Gurwin Techsat 1B 06 May 16:16:56 16:20:18 17° 265° (W) 16:23:40 435.225
JUGNU 06 May 16:18:30 16:22:42 20° 167° (SSE) 16:26:54 437.505
CUSAT 1 06 May 16:28:18 16:30:51 18° 290° (WNW) 16:33:52 437.405
SO-50 06 May 16:41:33 16:46:11 74° 244° (WSW) 16:50:39 436.795
Cosmos 2491 06 May 16:58:23 17:02:33 14° 69° (ENE) 17:06:41 435.465 / 435.565
KKS-1 06 May 17:00:13 17:04:36 56° 101° (E) 17:08:57 437.445
ITUPSAT 1 06 May 17:02:56 17:05:45 16° 292° (WNW) 17:08:36 437.325
STARS 06 May 17:05:45 17:09:37 30° 98° (E) 17:13:27 437.465
SWISSCUBE 06 May 17:11:15 17:12:45 11° 294° (WNW) 17:14:15 437.505
HORYU 2 06 May 17:19:38 17:23:57 51° 75° (ENE) 17:28:16 437.375
SRMSAT 06 May 17:27:07 17:30:06 14° 162° (SSE) 17:33:07 437.500
MOZHAYETS 4 06 May 17:33:56 17:38:31 89° 286° (WNW) 17:43:07
AO-7 06 May 17:44:07 17:51:18 33° 261° (W) 17:58:32 29.400- 29.500
BEESAT 3 06 May 17:49:46 17:53:40 74° 114° (ESE) 17:57:36 437.485
CUBESAT XI-V 06 May 17:55:37 17:57:55 13° 94° (E) 18:00:14 437.345
NOAA 15 06 May 18:03:47 18:08:01 25° 69° (ENE) 18:12:16 137.62
BEESAT 2 06 May 18:05:24 18:09:18 61° 115° (ESE) 18:13:14 435.950
JUGNU 06 May 18:06:12 18:11:11 29° 176° (S) 18:16:12 437.505
LilacSat-2 06 May 18:18:16 18:20:15 14° 70° (ENE) 18:22:13 437.200
Cubesat XI-IV 06 May 18:21:19 18:25:31 24° 69° (ENE) 18:29:44 437.490
NOAA 18 06 May 18:23:45 18:28:45 37° 71° (ENE) 18:33:45 137.9125
GOMX 1 06 May 18:31:46 18:34:06 13° 65° (ENE) 18:36:29 467.674
STARS 06 May 18:42:48 18:45:42 18° 291° (WNW) 18:48:35 437.465
Cosmos 2491 06 May 18:51:34 19:00:24 89° 264° (W) 19:09:09 435.465 / 435.565
YUBILEINY 06 May 18:54:03 19:02:23 51° 90° (E) 19:10:40 435.215
M-CUBED/EXP-1 PRIME 06 May 18:56:50 19:00:15 20° 66° (ENE) 19:03:37 437.505
HORYU 2 06 May 19:00:10 19:00:42 10° 266° (W) 19:01:13 437.375
AUBIESAT-1 06 May 19:11:23 19:15:02 23° 67° (ENE) 19:18:38 437.475
SRMSAT 06 May 19:13:55 19:18:44 25° 171° (S) 19:23:33 437.500
CUTE-I 06 May 19:14:06 19:19:26 86° 76° (ENE) 19:24:45 437.470
BRITE-PL 06 May 19:17:15 19:22:03 88° 80° (E) 19:27:18 437.365/2234.400
HO-68 06 May 19:30:07 19:34:01 16° 61° (ENE) 19:37:55 435.675
CUBESAT XI-V 06 May 19:30:58 19:35:25 43° 286° (WNW) 19:39:53 437.345
DOVE 4 06 May 19:41:03 19:45:39 35° 72° (ENE) 19:50:24 437.250
Cosmos 2504 06 May 19:42:06 19:47:05 20° 85° (E) 19:52:00 435.465 / 435.565
NOAA 15 06 May 19:43:02 19:47:35 30° 262° (W) 19:52:11 137.62
LilacSat-2 06 May 19:50:51 19:54:15 29° 262° (W) 19:57:40 437.200
CINEMA 3 06 May 19:54:48 19:57:22 14° 68° (ENE) 19:59:58 145.822/145.860
JUGNU 06 May 19:54:50 19:59:43 27° 187° (S) 20:04:39 437.505
Cubesat XI-IV 06 May 20:00:40 20:05:22 32° 262° (W) 20:10:05 437.490
NOAA 18 06 May 20:05:13 20:09:24 22° 263° (W) 20:13:36 137.9125
GOMX 1 06 May 20:06:34 20:11:29 59° 260° (W) 20:16:45 467.674
AIST 2 06 May 20:12:40 20:16:47 79° 299° (WNW) 20:20:55 435.215
CANX-2 06 May 20:13:30 20:16:37 20° 71° (ENE) 20:19:44 2200.000
RS-15 06 May 20:25:37 20:35:02 33° 104° (ESE) 20:44:48 29.354- 29.394
M-CUBED/EXP-1 PRIME 06 May 20:30:13 20:34:29 34° 257° (WSW) 20:38:44 437.505
CUTE 1.7 + AOD 2 06 May 20:44:27 20:48:26 43° 75° (ENE) 20:52:25 437.475
AUBIESAT-1 06 May 20:45:20 20:49:18 28° 258° (WSW) 20:53:14 437.475
YUBILEINY 06 May 20:52:15 20:59:20 27° 285° (WNW) 21:06:28 435.215
Cosmos 2491 06 May 20:52:40 20:55:53 12° 281° (W) 20:59:06 435.465 / 435.565
STRAND 1 06 May 20:56:43 21:01:50 79° 284° (WNW) 21:06:57 437.568
COMPASS 1 06 May 20:59:10 21:02:49 31° 73° (ENE) 21:06:27 437.405
SRMSAT 06 May 21:02:16 21:07:26 30° 181° (S) 21:12:37 437.500
SEEDS 06 May 21:03:34 21:07:37 53° 76° (ENE) 21:11:41 437.485
FUNcube-1 06 May 21:09:43 21:10:16 10° 68° (ENE) 21:10:49 145.935
HO-68 06 May 21:13:43 21:20:52 79° 256° (WSW) 21:28:03 435.675
DOVE 4 06 May 21:19:29 21:23:19 21° 266° (W) 21:27:17 437.250
AAUSAT CUBESAT 2 06 May 21:25:09 21:29:09 53° 76° (ENE) 21:33:09 437.432
CINEMA 3 06 May 21:29:09 21:34:00 51° 260° (W) 21:38:53 145.822/145.860
UWE-3 06 May 21:30:05 21:34:11 32° 73° (ENE) 21:38:14 435.000/436.395/437.385
Cosmos 2504 06 May 21:32:50 21:39:53 51° 279° (W) 21:46:49 435.465 / 435.565
JUGNU 06 May 21:44:31 21:48:12 17° 196° (SSW) 21:51:54 437.505
CUBEBUG 2 06 May 21:46:21 21:51:06 77° 77° (ENE) 21:55:45 437.445
CANX-2 06 May 21:48:56 21:52:18 23° 263° (W) 21:55:40 2200.000
ZACube-1 06 May 21:50:33 21:54:41 36° 74° (ENE) 21:58:45 437.345
DELFI C3 06 May 22:02:53 22:06:02 23° 72° (ENE) 22:09:12 145.870
AO-85 06 May 22:04:04 22:08:40 83° 63° (ENE) 22:12:49 145.980
PRISM 06 May 22:08:54 22:13:00 57° 285° (WNW) 22:17:05 437.425
HUMSAT D 06 May 22:16:40 22:19:05 15° 70° (ENE) 22:21:30 437.325/437.525
Oscar 11 06 May 22:23:33 22:27:51 74° 259° (W) 22:32:09 145.826/435.025
CUTE 1.7 + AOD 2 06 May 22:23:35 22:24:25 10° 267° (W) 22:25:15 437.475
RS-15 06 May 22:35:45 22:46:41 58° 302° (WNW) 22:58:18 29.354- 29.394
COMPASS 1 06 May 22:36:09 22:38:23 14° 266° (W) 22:40:37 437.405
FUNcube-1 06 May 22:41:35 22:46:00 55° 260° (W) 22:50:22 145.935
SRMSAT 06 May 22:51:27 22:56:09 24° 191° (S) 23:00:50 437.500
ANTELSAT 06 May 23:04:17 23:07:11 18° 95° (E) 23:10:05 437.575/2403.000
UWE-3 06 May 23:07:29 23:10:37 18° 265° (W) 23:13:42 435.000/436.395/437.385
CUBEBUG 1 06 May 23:23:17 23:24:20 11° 67° (ENE) 23:25:23 437.445
ZACube-1 06 May 23:28:23 23:30:59 15° 265° (W) 23:33:35 437.345
ESTCUBE 1 06 May 23:33:49 23:37:18 23° 71° (ENE) 23:40:49 437.505/2401.250
DELFI C3 06 May 23:38:12 23:40:49 17° 264° (W) 23:43:27 145.870
UKube-1 06 May 23:40:50 23:42:46 13° 68° (ENE) 23:44:43 .
DX 1 06 May 23:41:55 23:44:44 17° 69° (ENE) 23:47:34 434.975-435.025
HUMSAT D 06 May 23:50:38 23:54:25 32° 262° (W) 23:58:10 437.325/437.525
50 SAT 06 May 23:52:29 23:55:32 26° 73° (ENE) 23:58:35 437.505
UNISAT 6 06 May 23:57:36 00:01:54 89° 126° (SE) 00:06:08 437.425
VELOX 1 06 May 23:59:41 00:03:36 32° 72° (ENE) 00:07:33 145.980
SPROUT 07 May 00:02:58 00:04:05 11° 68° (ENE) 00:05:12 437.525
TIGRISAT 07 May 00:13:35 00:17:48 60° 284° (WNW) 00:21:57 435.000
NANOSAT C BR1 07 May 00:19:43 00:23:04 23° 97° (E) 00:26:23 145.865
AIST 1 07 May 00:21:25 00:25:25 39° 92° (E) 00:29:28
AISAT 07 May 00:31:51 00:36:17 86° 75° (ENE) 00:40:46 437.250
GONETS M04 07 May 00:39:03 00:47:36 57° 91° (E) 00:56:09
ANTELSAT 07 May 00:40:17 00:43:52 26° 288° (WNW) 00:47:24 437.575/2403.000
SRMSAT 07 May 00:42:25 00:44:45 12° 199° (SSW) 00:47:06 437.500
O/OREOS (USA 219) 07 May 00:53:47 00:58:11 53° 70° (ENE) 01:02:33 437.305
CUBEBUG 1 07 May 00:55:52 01:00:06 50° 260° (W) 01:04:23 437.445
RS-15 07 May 00:56:35 01:02:30 15° 329° (NNW) 01:08:35 29.354- 29.394
PCSat 07 May 00:57:58 01:03:14 50° 63° (ENE) 01:08:27 145.827
DUCHIFAT 1 07 May 01:09:09 01:13:22 84° 281° (WNW) 01:17:32 145.980
ESTCUBE 1 07 May 01:10:22 01:13:57 24° 263° (W) 01:17:33 437.505/2401.250
UKube-1 07 May 01:14:20 01:18:24 41° 261° (W) 01:22:29 .
QB50P2 07 May 01:16:10 01:20:19 56° 284° (WNW) 01:24:24 145.880/145.840
DX 1 07 May 01:16:47 01:20:38 31° 262° (W) 01:24:31 434.975-435.025
POLYITAN 1 07 May 01:18:25 01:22:32 54° 284° (WNW) 01:26:37 437.675
POPSAT HIP 1 07 May 01:19:44 01:23:51 54° 285° (WNW) 01:27:56 437.405
QB50P1 07 May 01:22:32 01:26:37 49° 285° (WNW) 01:30:39 145.935-145.965
CUSAT 1 07 May 01:23:49 01:29:39 22° 73° (ENE) 01:35:34 437.405
Cosmos 2499 07 May 01:25:03 01:31:59 58° 92° (E) 01:38:53 435.465 / 435.565
50 SAT 07 May 01:27:37 01:29:18 13° 265° (W) 01:30:58 437.505
BUGSAT 1 07 May 01:31:38 01:35:47 82° 101° (E) 01:39:52 437.445
SPROUT 07 May 01:35:24 01:39:33 48° 260° (W) 01:43:44 437.525
VELOX 1 07 May 01:37:15 01:40:04 17° 265° (W) 01:42:54 145.980
TISAT 1 07 May 01:51:56 01:56:09 66° 75° (ENE) 02:00:22 437.305
NANOSAT C BR1 07 May 01:55:30 01:58:38 21° 289° (WNW) 02:01:45 145.865
AIST 1 07 May 02:01:37 02:03:10 12° 285° (WNW) 02:04:42
JAS-2 07 May 02:18:45 02:26:34 64° 101° (E) 02:34:00 435.910
Oscar 19 07 May 02:25:22 02:30:06 35° 99° (E) 02:34:46 437.125/150
ITUPSAT 1 07 May 02:25:26 02:29:16 25° 71° (ENE) 02:33:07 437.325
SWISSCUBE 07 May 02:31:49 02:36:03 34° 72° (ENE) 02:40:19 437.505
GONETS M04 07 May 02:37:50 02:44:44 25° 286° (WNW) 02:51:40
PCSat 07 May 02:42:58 02:46:08 16° 256° (WSW) 02:49:17 145.827
DANDE 07 May 02:46:47 02:54:03 50° 80° (E) 03:02:07 436.750
Gurwin Techsat 1B 07 May 02:57:36 03:02:09 28° 97° (E) 03:06:39 435.225
BEESAT 07 May 03:03:52 03:08:36 72° 75° (ENE) 03:13:21 436.000
CUSAT 1 07 May 03:04:21 03:12:09 67° 266° (W) 03:20:00 437.405
Cosmos 2499 07 May 03:21:01 03:25:27 17° 287° (WNW) 03:29:55 435.465 / 435.565
BEESAT 3 07 May 03:49:52 03:53:48 73° 244° (WSW) 03:57:42 437.485
KKS-1 07 May 03:53:00 03:56:40 25° 71° (ENE) 04:00:22 437.445
ITAMSAT 1 07 May 03:54:06 03:58:58 40° 100° (E) 04:03:50 435.822/435.867
STARS 07 May 03:58:14 04:00:32 14° 68° (ENE) 04:02:50 437.465
AO-7 07 May 04:00:18 04:05:56 20° 96° (E) 04:11:33 29.400- 29.500
ITUPSAT 1 07 May 04:03:06 04:06:57 25° 263° (W) 04:10:51 437.325
JAS-2 07 May 04:05:01 04:10:49 23° 296° (WNW) 04:16:30 435.910
Oscar 19 07 May 04:05:17 04:09:07 21° 292° (WNW) 04:12:56 437.125/150
BEESAT 2 07 May 04:06:23 04:10:22 86° 245° (WSW) 04:14:18 435.950
SWISSCUBE 07 May 04:10:39 04:13:51 18° 264° (W) 04:17:05 437.505
MOZHAYETS 4 07 May 04:30:03 04:34:20 42° 74° (ENE) 04:38:39
DANDE 07 May 04:30:14 04:36:36 30° 270° (W) 04:43:32 436.750
Gurwin Techsat 1B 07 May 04:37:32 04:41:55 27° 290° (WNW) 04:46:19 435.225
AIST 2 07 May 04:41:11 04:43:01 13° 52° (NE) 04:44:51 435.215
SO-50 07 May 05:12:53 05:14:26 11° 106° (ESE) 05:15:59 436.795
YUBILEINY 07 May 05:13:10 05:18:37 18° 71° (ENE) 05:24:02 435.215
HORYU 2 07 May 05:17:40 05:20:15 15° 95° (E) 05:22:49 437.375
KKS-1 07 May 05:29:43 05:33:08 21° 263° (W) 05:36:34 437.445
STARS 07 May 05:32:21 05:36:30 39° 261° (W) 05:40:40 437.465
RS-15 07 May 05:32:56 05:42:45 27° 44° (NE) 05:52:30 29.354- 29.394
ITAMSAT 1 07 May 05:34:35 05:38:05 19° 292° (WNW) 05:41:35 435.822/435.867
AO-7 07 May 05:50:50 05:59:07 70° 290° (WNW) 06:07:23 29.400- 29.500
Cosmos 2491 07 May 05:51:49 05:57:47 21° 83° (E) 06:03:44 435.465 / 435.565
ISS 07 May 05:55:32 05:58:46 62° 316° (NW) 06:02:00 145.825
MOZHAYETS 4 07 May 06:09:34 06:11:38 13° 266° (W) 06:13:41
AIST 2 07 May 06:17:46 06:21:43 45° 247° (WSW) 06:25:38 435.215
NOAA 15 07 May 06:25:34 06:28:32 15° 94° (E) 06:31:30 137.62
CUBESAT XI-V 07 May 06:28:00 06:32:35 89° 262° (W) 06:37:13 437.345
Cubesat XI-IV 07 May 06:45:04 06:48:04 15° 94° (E) 06:51:05 437.490
SO-50 07 May 06:49:33 06:54:22 60° 299° (WNW) 06:59:14 436.795
NOAA 18 07 May 06:51:58 06:56:23 25° 97° (E) 07:00:48 137.9125
HORYU 2 07 May 06:52:52 06:56:51 34° 287° (WNW) 07:00:48 437.375
PHONESAT 2.4 07 May 07:07:19 07:09:54 24° 143° (SE) 07:12:29 2401.200-2431.200
YUBILEINY 07 May 07:07:26 07:16:07 75° 267° (W) 07:24:48 435.215
